Regional Weather Roundup
Issued by NWS Spokane, WA

Current Version | Previous Version | Text Only | Print | Product List | Glossary On
Versions: 1 2 3 4 5 6 7 8 9 10 11 12 13 14 15 16 17 18 19 20 21 22 23 24 25 26 27 28 29 30 31 32 33 34 35 36 37 38 39 40 41 42 43 44 45 46 47 48 49 50
813
NZUS01 KOTX 210700
RWROTX

Eastern Washington/Northern Idaho Roundup
National Weather Service, Spokane WA
1100 PM PST FRI JAN 20 2017

Note: "fair" indicated few or no clouds below 12,000 feet with no
significant weather and/or obstructions to visibility.

...Northeast Washington and Northern Idaho Panhandle...

CITY           SKY/WX    TMP DP  RH WIND       PRES   REMARKS
Spokane Intl   CLOUDY    35  29  78 NE8       29.23R WCI  29
Spokane Downto CLOUDY    35  31  85 CALM      29.25S
Coeur d Alene  CLOUDY    36  29  75 N15       29.25S
Deer Park      CLOUDY    37  28  70 N10       29.25R
Sandpoint      CLOUDY    36  30  80 NE12      29.29R

...Southeast Washington and southern Idaho Panhandle...

CITY           SKY/WX    TMP DP  RH WIND       PRES   REMARKS
Walla Walla    CLOUDY    32  30  92 W7        29.22R FOG     WCI  26
Pullman/Moscow CLOUDY    36  30  79 SE7       29.24R
Lowell           N/A     31  29  92 CALM      29.33R

...Columbia Basin...

CITY           SKY/WX    TMP DP  RH WIND       PRES   REMARKS
Ephrata        CLOUDY    36  29  75 NW7       29.23R
Moses Lake     CLOUDY    36  31  82 N7        29.23F
Pasco          CLOUDY    34  33  96 W5        29.27R WCI  30
Hermiston      CLOUDY    34  33  96 CALM      29.25R FOG
Pendleton      CLOUDY    32  31  96 NW8       29.21R FOG     WCI  25

...East Slopes Cascades...

CITY           SKY/WX    TMP DP  RH WIND       PRES   REMARKS
The Dalles     CLOUDY    34  33  96 CALM      29.28R FOG
Yakima         LGT RAIN  36  34  92 W3        29.26R
Ellensburg     CLOUDY    34  31  88 CALM      29.23R FOG
Wenatchee      MIX PCPN  32  32 100 NW5       29.27R WCI  27
Omak           CLOUDY    35  31  85 NW7       29.29R WCI  29
Sunnyside      CLOUDY    28  28  99 CALM      29.27R FOG

...Southern British Columbia...

CITY           SKY/WX    TMP DP  RH WIND       PRES   REMARKS

...Western Montana...

CITY           SKY/WX    TMP DP  RH WIND       PRES   REMARKS
Kalispell      MOSUNNY   17  14  88 NW3       29.32S
Missoula       CLOUDY    23  22  96 E7        29.34S FOG     WCI  15

...Neighboring Cities...

CITY           SKY/WX    TMP DP  RH WIND       PRES   REMARKS
Seattle        CLOUDY    44  39  82 SE5       29.19R
Portland       LGT RAIN  39  38  96 SE13      29.21R
Boise          MOCLDY    35  30  82 SE12      29.27S WCI  27
Great Falls    CLEAR     24  16  71 SW9       29.32S WCI  14



USA.gov is the U.S. government's official web portal to all federal, state and local government web resources and services.